Location: Althorst
(53.6379°N, 10.7715°E)
Time: 16:45:45
(UTC+00:00)

Okean-O - Pass Details

Date: 10 December 2019
Orbit: 639 x 641 km, 98.2° (Epoch: 20 January)

Event Time Altitude Azimuth Distance (km) Brightness Sun altitude
Rises 17:11:27 0° 174° (S) 2,937 6.1 -18.5°
Reaches altitude 10° 17:13:40 10° 178° (S) 2,032 5.3 -18.9°
Maximum altitude 17:18:02 59° 258° (WSW) 745 3.2 -19.5°
Drops below altitude 10° 17:22:27 10° 339° (NNW) 2,047 5.3 -20.1°
Sets 17:24:42 0° 343° (NNW) 2,962 6.1 -20.5°
